[[{"header":{"parameterUnit":"m.s-1","parameterCategory":1,"la1":30.2991,"la2":30.254,"lo1":-89.0895,"lo2":-89.0444,"dy":0.0017,"dx":0.0017,"nx":28,"ny":28,"refTime":"2025-06-07T21:00:00:Z","depth":0,"parameterNumber":2,"parameterNumberName":"U-component_of_WINDS"},"data":[0,0,0,0,0,0,0,0,0,0,0,0,0,0,0,0,0,0,0,0,0,0,0,0,0,0,0,0,0,0,0,0,0,0,0,0,0,0,0,0,0,0,0,0,0,0,0,0,0,0,0,0,0,0,0,0,0,0,4.6958,4.6958,0,4.6976,4.6976,4.6976,4.6956,4.6955,4.6954,4.6953,4.6972,4.6973,4.6974,0,0,0,0,0,0,0,0,0,0,0,0,0,4.6904,4.6905,4.6958,4.6958,4.6958,4.6976,4.6976,4.6976,4.6956,4.6955,4.6954,4.6953,4.6972,4.6973,4.6975,0,0,0,0,0,0,0,0,0,0,0,0,0,4.6925,4.6906,4.6957,4.695,4.6949,4.6976,4.6976,4.6976,4.6956,4.6955,4.6954,4.6953,4.6971,4.6973,4.6975,4.7009,0,0,4.698,4.6981,0,0,0,0,0,0,0,0,4.6924,4.6927,4.6951,4.6951,4.695,4.6962,4.6964,4.6987,4.6956,4.6954,4.6953,4.6952,4.697,4.6972,4.6978,4.701,4.7011,4.698,4.6982,4.6982,4.6983,0,0,0,0,0,0,0,4.6923,4.6927,4.6965,4.6951,4.6951,4.6945,4.6947,4.6968,4.6968,4.6954,4.6952,4.6955,4.6969,4.6976,4.6978,4.7011,4.698,4.6982,4.6983,4.6984,4.7072,4.7073,0,0,0,0,0,0,4.6922,4.6925,4.6964,4.6965,4.6934,4.6947,4.6949,4.696,4.6968,4.6968,4.6956,4.6954,4.6973,4.6976,4.6978,4.7018,4.6982,4.6984,4.6985,4.707,4.7072,4.7073,0,0,0,0,0,0,4.6921,4.6926,4.6963,4.6945,4.6949,4.6949,4.6961,4.6961,4.6967,4.6969,4.6969,4.6963,4.6972,4.6976,4.7001,4.7019,4.6985,4.6987,4.7069,4.7071,4.7073,4.7099,0,0,0,0,0,0,4.692,4.6926,4.6939,4.6945,4.695,4.6986,4.6962,4.6962,4.697,4.6968,4.6975,4.6976,4.6972,4.6999,4.7003,4.7021,4.6988,4.7067,4.707,4.7072,4.7097,4.7102,4.7106,0,0,0,0,0,4.6918,4.6946,4.694,4.6945,4.6967,4.6987,4.699,4.6985,4.6972,4.6985,4.6986,4.6975,4.7016,4.7002,4.7006,4.7025,4.7066,4.7069,4.7072,4.7095,4.7101,4.7106,0,0,0,0,0,0,4.6942,4.6947,4.694,4.6971,4.6979,4.6984,4.7,4.6992,4.7004,4.7001,4.6995,4.6997,4.7024,4.7027,4.701,4.7058,4.7039,4.7043,4.7055,4.706,4.7065,4.7063,4.6989,0,0,0,0,0,4.6951,4.6967,4.697,4.6997,4.7002,4.7,4.7009,4.7005,4.7013,4.7016,4.7019,4.7027,4.7042,4.7051,4.7065,4.7097,4.7098,4.7112,4.7117,4.712,4.7124,4.714,4.7146,4.7082,4.7082,4.7082,0,0,4.6969,4.6974,4.6985,4.7002,4.7008,4.7024,4.7003,4.7022,4.7034,4.7019,4.7043,4.7045,4.7054,4.7083,4.7095,4.7086,4.7141,4.7124,4.7127,4.7128,4.7143,4.7149,4.7154,4.7084,4.7084,4.7084,0,0,4.7011,4.7017,4.7039,4.7045,4.7054,4.7053,4.7058,4.7064,4.7065,4.7089,4.7078,4.7092,4.7118,4.7124,4.713,4.7174,4.7164,4.7178,4.7202,4.7218,4.7223,4.7227,4.7242,4.7247,4.7182,4.7182,4.7182,0,4.7033,4.7057,4.7052,4.7071,4.7079,4.7065,4.7088,4.7094,4.7107,4.7112,4.7101,4.7132,4.7137,4.7167,4.7177,4.7183,4.7189,4.7177,4.7223,4.7227,4.7231,4.7244,4.725,4.7183,4.7183,4.7183,4.7183,0,4.7083,4.71,4.7117,4.713,4.7139,4.716,4.7157,4.7168,4.7162,4.7162,4.7186,4.7192,4.7206,4.7212,4.7208,4.7241,4.7235,4.7224,4.7204,4.7239,4.7251,4.7256,4.7186,4.7185,4.7185,4.7184,0,0,4.714,4.7149,4.7155,4.716,4.7168,4.7181,4.7201,4.7215,4.7223,4.7232,4.7248,4.727,4.7259,4.7267,4.7262,4.7276,4.7309,4.7263,4.7263,4.7271,4.7345,4.7352,4.7358,4.7303,4.7304,4.7305,4.7344,0,4.7181,4.7215,4.7211,4.7243,4.7259,4.7246,4.7263,4.727,4.727,4.7283,4.7283,4.7298,4.7284,4.7288,4.7301,4.7302,4.7324,4.7299,4.7317,4.7317,4.7314,4.7365,4.7373,4.741,4.7349,4.735,4.735,0,4.7234,4.7244,4.7278,4.7283,4.7289,4.7305,4.7316,4.7329,4.7336,4.7335,4.7343,4.7336,4.7356,4.7337,4.7363,4.7346,4.7353,4.7355,4.7356,4.7356,4.7335,4.7366,4.7422,4.7427,4.7358,4.7357,4.7357,0,4.727,4.7293,4.7316,4.7321,4.7328,4.7339,4.7342,4.7348,4.7356,4.7366,4.7371,4.7384,4.739,4.74,4.7396,4.7383,4.7422,4.7403,4.7421,4.7421,4.7429,4.7429,4.7486,4.7436,4.7436,4.7436,4.7436,0,4.7316,4.7337,4.7333,4.7347,4.737,4.7364,4.7387,4.7389,4.7394,4.7408,4.7398,4.7411,4.7406,4.7419,4.7416,4.7437,4.7441,4.744,4.7439,4.744,4.744,4.7444,4.7441,4.7437,4.7437,4.7437,4.7436,0,4.7361,4.7359,4.7383,4.7387,4.7389,4.7405,4.7409,4.7422,4.7421,4.7439,4.7442,4.7442,4.7456,4.7453,4.7469,4.7467,4.7494,4.749,4.7491,4.749,4.7507,4.7505,4.7568,4.7575,4.7522,4.7522,4.7523,0,4.7389,4.7405,4.7411,4.7419,4.7423,4.7437,4.7445,4.744,4.7449,4.7458,4.7469,4.7483,4.7493,4.7517,4.7517,4.7529,4.7525,4.7546,4.7527,4.7527,4.7524,4.7522,4.7523,4.755,4.755,4.7551,4.7551,0,4.744,4.7438,4.745,4.7461,4.7471,4.748,4.7488,4.7495,4.7491,4.7501,4.7515,4.7523,4.7539,4.7552,4.7563,4.7566,4.7558,4.7557,4.7562,4.7563,4.7562,4.7562,4.75,4.7556,4.7555,4.7555,4.7555,4.7554,4.7477,4.749,4.7495,4.7509,4.7514,4.7521,4.7533,4.7534,4.7546,4.7558,4.7555,4.7571,4.7577,4.7591,4.7595,4.7607,4.7599,4.7606,4.7608,4.7609,4.7611,4.7561,4.7609,4.7609,4.7609,4.7609,4.7609,0,4.7526,4.7529,4.7541,4.7552,4.7562,4.7554,4.7561,4.757,4.7585,4.7591,4.7601,4.7617,4.763,4.7631,4.7643,4.7652,4.7649,4.7655,4.7654,4.7655,4.7618,4.7612,4.7658,4.7658,4.7658,4.7658,4.7658,4.7658,4.7553,4.7574,4.7572,4.7596,4.7598,4.7614,4.7619,4.7625,4.763,4.7648,4.7659,4.766,4.7664,4.7675,4.7686,4.7686,4.7691,4.7699,4.7697,4.7662,4.7658,4.7653,4.7647,4.77,4.77,4.7733,4.7733,4.7733]},{"header":{"parameterUnit":"m.s-1","parameterCategory":1,"la1":30.2991,"la2":30.254,"lo1":-89.0895,"lo2":-89.0444,"dy":0.0017,"dx":0.0017,"nx":28,"ny":28,"refTime":"2025-06-07T21:00:00:Z","depth":0,"parameterNumber":3,"parameterNumberName":"V-component_of_WINDS"},"data":[0,0,0,0,0,0,0,0,0,0,0,0,0,0,0,0,0,0,0,0,0,0,0,0,0,0,0,0,0,0,0,0,0,0,0,0,0,0,0,0,0,0,0,0,0,0,0,0,0,0,0,0,0,0,0,0,0,0,0.366,0.3659,0,0.3594,0.3594,0.3593,0.3588,0.3589,0.3589,0.359,0.3522,0.352,0.3517,0,0,0,0,0,0,0,0,0,0,0,0,0,0.3777,0.3775,0.366,0.3659,0.3658,0.3594,0.3594,0.3593,0.3588,0.3589,0.359,0.359,0.3523,0.352,0.3517,0,0,0,0,0,0,0,0,0,0,0,0,0,0.3721,0.3775,0.366,0.3648,0.3646,0.3595,0.3593,0.3592,0.3588,0.3589,0.359,0.3591,0.3524,0.352,0.3517,0.3472,0,0,0.3505,0.3504,0,0,0,0,0,0,0,0,0.3724,0.3716,0.365,0.3649,0.3647,0.36,0.361,0.3552,0.3587,0.361,0.359,0.3591,0.3547,0.3542,0.3527,0.3469,0.3466,0.3505,0.3503,0.3501,0.35,0,0,0,0,0,0,0,0.3728,0.3719,0.3634,0.365,0.3647,0.3645,0.3638,0.3599,0.3573,0.3608,0.3607,0.36,0.3546,0.3531,0.3525,0.3465,0.3505,0.3502,0.35,0.3498,0.3364,0.3363,0,0,0,0,0,0,0.3734,0.3722,0.3636,0.3632,0.3689,0.3642,0.3634,0.3614,0.3574,0.3569,0.3599,0.36,0.3537,0.353,0.3523,0.3466,0.3501,0.3498,0.3496,0.3365,0.3364,0.3362,0,0,0,0,0,0,0.3737,0.3727,0.3638,0.3677,0.3665,0.3639,0.3616,0.3612,0.3597,0.3567,0.3562,0.3588,0.3537,0.3528,0.3484,0.3464,0.3496,0.3493,0.3367,0.3365,0.3363,0.3354,0,0,0,0,0,0,0.374,0.3728,0.3711,0.3677,0.3663,0.3602,0.3615,0.361,0.359,0.3591,0.3555,0.355,0.3537,0.349,0.3481,0.3459,0.349,0.3369,0.3366,0.3364,0.3356,0.3352,0.3348,0,0,0,0,0,0.3744,0.3711,0.371,0.37,0.3642,0.36,0.3593,0.3579,0.3589,0.3571,0.3552,0.3551,0.3468,0.3485,0.3475,0.3452,0.337,0.3367,0.3364,0.3357,0.3352,0.3348,0,0,0,0,0,0,0.3744,0.3707,0.3705,0.366,0.3633,0.36,0.3578,0.3574,0.3544,0.3546,0.353,0.3522,0.3478,0.3461,0.3481,0.3406,0.342,0.3415,0.3418,0.3413,0.341,0.3414,0.3487,0,0,0,0,0,0.3739,0.3709,0.3677,0.364,0.3627,0.3605,0.3586,0.3577,0.3549,0.3537,0.3515,0.3487,0.3454,0.3433,0.3401,0.3353,0.3344,0.3332,0.3329,0.3326,0.3321,0.3292,0.3286,0.3353,0.3353,0.3353,0,0,0.3728,0.3704,0.3686,0.364,0.3618,0.3586,0.3595,0.3561,0.3537,0.3532,0.3489,0.3471,0.3439,0.3392,0.337,0.3376,0.3301,0.3322,0.332,0.3317,0.3288,0.3282,0.3276,0.3351,0.3351,0.3351,0,0,0.3691,0.367,0.3636,0.3614,0.3581,0.3566,0.3557,0.3524,0.3512,0.3468,0.3463,0.3433,0.3378,0.3354,0.3335,0.3286,0.3284,0.3277,0.3257,0.3229,0.3223,0.3218,0.3199,0.3193,0.3272,0.3272,0.3272,0,0.3681,0.3633,0.3619,0.3584,0.3564,0.3558,0.3522,0.3501,0.3459,0.3445,0.3452,0.3381,0.3359,0.3305,0.3293,0.3278,0.3267,0.328,0.3225,0.322,0.3216,0.3197,0.319,0.3271,0.3271,0.3272,0.3272,0,0.3621,0.3588,0.3564,0.3524,0.35,0.3465,0.3445,0.3423,0.3416,0.3399,0.3353,0.3326,0.3288,0.3275,0.3268,0.322,0.3224,0.3229,0.3243,0.3209,0.3191,0.3184,0.327,0.327,0.3271,0.3271,0,0,0.3583,0.3534,0.3525,0.3506,0.3468,0.3441,0.3405,0.3368,0.3348,0.3319,0.3288,0.324,0.3243,0.3221,0.3211,0.3187,0.3147,0.3194,0.3193,0.3185,0.309,0.3086,0.3078,0.3146,0.3145,0.3143,0.3092,0,0.3541,0.3477,0.3462,0.3407,0.3375,0.3368,0.3336,0.3309,0.3292,0.3262,0.3243,0.3209,0.3217,0.3203,0.3178,0.3158,0.3128,0.3161,0.3115,0.3114,0.3122,0.307,0.3066,0.3019,0.3086,0.3084,0.3084,0,0.3483,0.3452,0.3393,0.3358,0.3344,0.3316,0.3279,0.325,0.3218,0.3208,0.3182,0.3174,0.3135,0.3151,0.3096,0.3119,0.3099,0.3085,0.3083,0.3078,0.3096,0.3061,0.3004,0.2996,0.3073,0.3074,0.3075,0,0.3459,0.3402,0.3359,0.3343,0.3301,0.3281,0.3262,0.3232,0.3209,0.3177,0.3162,0.3126,0.3105,0.3077,0.3059,0.3072,0.3004,0.3019,0.2993,0.2993,0.2979,0.298,0.2916,0.2968,0.2968,0.2968,0.2968,0,0.3412,0.3376,0.3348,0.3321,0.328,0.3263,0.3222,0.3204,0.3176,0.3145,0.3137,0.3107,0.3086,0.3053,0.3039,0.2994,0.2985,0.2975,0.2971,0.2975,0.2976,0.2961,0.2963,0.2966,0.2967,0.2967,0.2967,0,0.3378,0.3358,0.331,0.3274,0.3264,0.3235,0.3203,0.3176,0.3159,0.3119,0.3109,0.3081,0.3042,0.3022,0.2973,0.2963,0.2913,0.2911,0.2923,0.2921,0.2896,0.2898,0.282,0.2808,0.2869,0.2868,0.2868,0,0.3349,0.3321,0.3281,0.326,0.3241,0.3206,0.3183,0.3165,0.3141,0.3101,0.3079,0.3039,0.3006,0.2944,0.2919,0.2881,0.2878,0.2853,0.2873,0.2876,0.2876,0.2878,0.2874,0.285,0.2849,0.2849,0.2848,0,0.33,0.329,0.3258,0.322,0.3193,0.3163,0.3133,0.3116,0.3092,0.3065,0.3025,0.2999,0.2949,0.2909,0.2869,0.2849,0.2844,0.2842,0.2834,0.2837,0.2845,0.2839,0.2913,0.2844,0.2845,0.2845,0.2845,0.2845,0.3266,0.324,0.3207,0.317,0.3146,0.3118,0.309,0.3069,0.3035,0.2993,0.2984,0.2941,0.2907,0.2853,0.2831,0.2797,0.2802,0.279,0.2787,0.2784,0.2782,0.2851,0.2789,0.279,0.279,0.279,0.279,0,0.3215,0.3193,0.3159,0.3117,0.3087,0.3086,0.3052,0.3027,0.2989,0.2959,0.2927,0.2879,0.284,0.2812,0.2771,0.2749,0.2746,0.2739,0.274,0.2735,0.2781,0.2791,0.2742,0.2742,0.2742,0.2742,0.2742,0.2742,0.3184,0.3139,0.3126,0.3068,0.3047,0.3005,0.2985,0.2959,0.2934,0.2882,0.2849,0.2831,0.28,0.2757,0.2721,0.2713,0.2698,0.2692,0.2684,0.2727,0.2732,0.2737,0.2746,0.2689,0.2689,0.2641,0.264,0.264]}]]